Central Wisconsin Airport
KCWA : now visible

Airfield :











YOU CAN JOIN US ON...

 
LOGIN :

Register | Disclaimer

   EN    FR    IT 

 









Legend :    VFR   Marginal VFR   IFR   Intensive IFR   Very Intensive IFR
Visi :
Ceiling :
>= 8 km
>= 3000ft
5 to 8 km
1000 to 3000 ft
1500m to 5 km
500 to 1000 ft
800 to 1500m
200 to 500 ft
< 800m
< 200 ft
Symbols :   Thunderstorms  Fog  Heavy snow  Heavy precipitations  Wind > 20 kt






- Airport Elevation : 1277 ft


KCWA - Central Wisconsin

CURRENT METAR :
  • 161747Z 17014G19KT 10SM CLR 23/12 A3001

EXPIRED METARs :
  • 161647Z 17011KT 10SM FEW100 21/12 A3003
  • 161547Z 18011KT 10SM FEW120 18/12 A3005

TAF KCWA
Valid from the 16 at 18:00 until the 17 at 18:00 UTC


161734Z 1618/1718 18012G21KT P6SM SKC
FM170200 19010G20KT P6SM SCT250 WS010/21045KT
FM171000 21007G15KT P6SM VCSH BKN120 WS011/23040KT
FM171300 24008KT P6SM BKN070
FM171500 29008KT P6SM BKN035
KZMP FIR / North America



MET'MAP, your aeronautical weather chart ! - Copyright ORBIFLY December 2007 - Disclaimer

ORBIFLY MET'MAP TEAM :

Programming & Development : Alexandra Zaïnal
Concept & original design : Baudouin d'Aumeries
Assistance for programming : Marc-Olivier Méhu
Technical & hardware support : Manuel Goepfert

Contact : metmap@orbifly.com




SOURCES & CREDITS :

   NOAA       Earth
Advisory